Location: Great Falls
(47.5000°N, 111.3000°W)
Time: 21:58:39
(UTC-07:00)

ISS - Visible Passes

Search period start: 18 November 2018 00:00
Search period end: 28 November 2018 00:00
Orbit: 401 x 408 km, 51.6° (Epoch: 19 November)

Date Brightness Start Highest point End Pass type
(mag) Time Alt. Az. Time Alt. Az. Time Alt. Az.
23 Nov -1.1 19:06:41 10° SSW 19:07:15 14° SSW 19:07:15 14° SSW visible
24 Nov -1.9 18:15:19 10° S 18:17:29 18° SE 18:17:29 18° SE visible
25 Nov -1.3 17:25:11 10° SE 17:25:40 10° SE 17:26:10 10° SE visible
25 Nov -2.3 18:58:21 10° SW 19:00:19 32° SW 19:00:19 32° SW visible
26 Nov -2.9 18:06:29 10° SSW 18:09:29 35° SE 18:10:22 29° ESE visible
26 Nov -0.4 19:42:40 10° W 19:43:03 13° W 19:43:03 13° W visible
27 Nov -2.1 17:14:54 10° S 17:17:28 21° SE 17:20:00 10° E visible
27 Nov -3.2 18:50:23 10° WSW 18:53:02 54° W 18:53:02 54° W visible
